Regional Weather Roundup
Issued by NWS Wakefield, VA

Home | Current Version | Previous Version | Text Only | Print | Product List | Glossary Off
Versions: 1 2 3 4 5 6 7 8 9 10 11 12 13 14 15 16 17 18 19 20 21 22 23 24 25 26 27

000
ASUS41 KAKQ 232110
RWRAKQ

REGIONAL WEATHER ROUNDUP
NATIONAL WEATHER SERVICE WAKEFIELD VA
500 PM EDT WED APR 23 2014

Note: "fair" indicates few or no clouds below 12,000 feet with no
significant weather and/or obstructions to visibility. * = Denotes
station may not report precipitation (e.g., rain,snow,etc.),
thunder or fog.

VAZ042-051-052>054-056-232200-
NORTHERN VIRGINIA

CITY           SKY/WX    TMP DP  RH WIND       PRES   REMARKS
WASH NATIONAL  MOSUNNY   60  35  39 NW20G26   29.85R
DULLES         MOSUNNY   57  33  40 NW21G29   29.87R
FORT BELVOIR   MOSUNNY   60  33  37 NW23      29.86R
QUANTICO       MOSUNNY   62  33  33 N20G32    29.86R
FREDERICKSBRG* SUNNY     64  34  33 N14G23    29.84S
STAFFORD*      MOSUNNY   61  35  38 N13G18    29.89S
WARRENTON      SUNNY     62  41  45 NW18G26   29.85
CULPEPER*      MOSUNNY   63  28  27 N15G21    29.87R
MANASSAS*      MOSUNNY   61  36  39 NW15G29   29.87R
LEESBURG*      CLOUDY    59  37  44 N22G28    29.89R
WINCHESTER     MOSUNNY   54  32  43 NW13G29   29.90R
$$

VAZ048-049-060>072-079>083-232200-
CENTRAL AND SOUTH CENTRAL VIRGINIA...AND NORTH CENTRAL NORTH CAROLINA

CITY           SKY/WX    TMP DP  RH WIND       PRES   REMARKS
RICHMOND       MOSUNNY   67  28  23 NW24G32   29.83R
CHESTERFIELD*  CLEAR     66  30  26 NW18G25   29.84R
HANOVER        SUNNY     66  30  26 NW18G24   29.85R
TAPPAHANNOCK*  MOSUNNY   65  27  24 NW9G20    29.82S
CHARLOTTSVILLE SUNNY     63  29  27 NW14G25   29.85R
ORANGE*        MOSUNNY   63  30  29 W10       29.88R
LOUISA*        PTSUNNY   64  34  32 NW10G17   29.84R
FARMVILLE*     SUNNY     68  30  24 N6        29.81S
SOUTH HILL*    SUNNY     72  34  25 NW7       29.87S
ROANOKE RAPIDS CLEAR     55  25  30 W10G20    29.82S
RALEIGH        SUNNY     71  26  18 N10G24    29.83F
$$

VAZ088>098-232200-
SOUTHEAST VIRGINIA

CITY           SKY/WX    TMP DP  RH WIND       PRES   REMARKS
NORFOLK        SUNNY     66  30  26 W13G21    29.78R
VIRGINIA BEACH MOSUNNY   66  36  32 N17G29    29.78R
NORFOLK NAVAL  MOSUNNY   67  33  28 NW20G28   29.81R
WEST POINT*      N/A    N/A N/A N/A MISG        N/A
NEWPORT NEWS   SUNNY     69  31  24 NW22G29   29.80R
LANGLEY AFB    SUNNY     65  34  31 N18G26    29.80R
FORT EUSTIS    SUNNY     65  41  40 NW15      29.79R
WILLIAMSBURG*  MOSUNNY   72  39  30 NW13G25   29.81S
FRANKLIN*      SUNNY     70  30  23 NW14G21   29.80S
WAKEFIELD      SUNNY     68  29  23 N9G22     29.80S
$$

VAZ020-022-025-037-045-232200-
WESTERN AND SOUTHWEST VIRGINIA

CITY           SKY/WX    TMP DP  RH WIND       PRES   REMARKS
STAUNTON*      SUNNY     58  29  32 NW15      29.91R
HOT SPRINGS VA SUNNY     50  27  40 NW18G28   29.95S
LYNCHBURG      SUNNY     73  29  19 W10G26    29.85S
DANVILLE       SUNNY     71  30  21 N8G18     29.85S
MARTINSVILLE   SUNNY     70  28  21 N14G22    29.89S
ROANOKE        SUNNY     65  26  23 NW13G30   29.90F
BLACKSBURG     SUNNY     61  34  36 NW12G22   29.94S
DUBLIN*        SUNNY     60  25  25 NW10G16   29.93S
MARION*        SUNNY     60  22  23 W8G23     29.97S
HILLSVILLE*    SUNNY     61   7  11 W14       29.95F
RICHLANDS*     CLEAR     61  25  25 NW13      29.98S
WISE*          SUNNY     61  23  23 NW10G16   30.00F
ABINGDON*      SUNNY     64  22  19 N9G16     29.96F
$$

MDZ021>025-VAZ099-100-232200-
SOUTHERN MARYLAND AND THE DELMARVA PENINSULA

CITY           SKY/WX    TMP DP  RH WIND       PRES   REMARKS
PATUXENT RIVER MOSUNNY   61  34  36 NW24G31   29.80R
BAY BRIDGE APT NOT AVBL
LEONARDTOWN    MOSUNNY   59  32  36 NW13G22   29.83R
DOVER          MOSUNNY   59  36  42 NW22G37   29.72R
GEORGETOWN     MOSUNNY   61  34  36 NW14G30   29.75R
EASTON         MOSUNNY   63  39  42 NW17G28   29.82S
CAMBRIDGE      SUNNY     61  36  39 NW12G24   29.79S
SALISBURY      PTSUNNY   62  35  36 NW14G29   29.76S
OCEAN CITY     MOSUNNY   60  36  40 NW18G31   29.74R
WALLOPS ISLAND MOSUNNY   61  37  41 NW21G35   29.77R
ACCOMACK*      SUNNY     61  36  39 NW22G32   29.78S
$$

NCZ012>017-030>032-232200-
EASTERN NORTH CAROLINA

CITY           SKY/WX    TMP DP  RH WIND       PRES   REMARKS
ELIZABETH CITY SUNNY     69  33  26 NW15G24   29.78R
AHOSKIE*       MOSUNNY   69  35  28 NW5       29.81R
EDENTON*       SUNNY     70  35  28 NW15G22   29.79S
CURRITUCK*     SUNNY     69  28  21 NW14G21   29.79R
KILL DEVIL HLS SUNNY     60  37  42 NE6       29.78S
MANTEO         SUNNY     61  38  43 NE12G17   29.79S
CAPE HATTERAS  MOSUNNY   61  37  41 VRB6      29.80R
GOLDSBORO      SUNNY     72  31  21 NW12G24   29.80S
WASHINGTON     SUNNY     73  16  11 NW10G20   29.80R
GREENVILLE     SUNNY     70  32  24 NW12G20   29.84R
NEW BERN       SUNNY     74  34  23 NW13G21   29.80R
WILMINGTON     SUNNY     81  35  19 NW16G23   29.78S
$$

VAZ048-232200-
ELSEWHERE

CITY           SKY/WX    TMP DP  RH WIND       PRES   REMARKS
HARRISBURG PA  PTSUNNY   53  35  50 NW22G32   29.83R
BALTIMORE      MOSUNNY   56  35  45 NW17G26   29.82R
ANNAPOLIS      SUNNY     58  36  43 NW16G25   29.81R
ANDREWS AFB    MOSUNNY   58  35  41 NW21G28   29.83S
WILMINGTON DE  PTSUNNY   57  35  43 NW29G35   29.77R
PHILADELPHIA   MOSUNNY   60  32  34 NW24G44   29.74R
WILDWOOD NJ*   SUNNY     57  37  47 NW15G25   29.74R
ATLANTIC CITY  PTSUNNY   59  33  37 NW28G36   29.68R
HENDERSON NC   SUNNY     68  26  20 W12G21    29.85R
GREENSBORO     SUNNY     72  22  15 NW14G22   29.85F
ROCKY MOUNT    SUNNY     70  30  22 NW12      29.82S
FAYETTEVILLE   SUNNY     77  25  14 NW17G24   29.82R
CHARLOTTE      SUNNY     77  27  15 NW13      29.85F
$$

VAZ100-232200-
MARINE

STATION/POSITION TIME  TEMP    WIND        PRES    WAVE   SWELL
                       AIR SEA DIR/SP/G            HT/PER HT/PER
                 (UTC) (F)     (DEG/KT/KT) (MB)    (FT/S) (FT/S)
44066 TX TWR #4  2100   49 45  300/ 16/ 17 1001.7R   5/ 6   2/ 9
CAPE MAY NJ      2100   56 57  330/ 22/ 29 1006.3S
LEWES DE         2100   56 53  320/ 24/ 31 1006.4R
15NM E FENWICK I 2100   52 47              1006.3R   4/ 5
OCEAN-CITY-INLET 2100   58 48  330/ 18/ 25 1006.6S
WACHAPREAGUE VA  2100   60 59  290/  5/ 15 1008.0F
THOMAS POINT MD  2100   57 54  320/ 21/ 25 1009.5R
GOOSES REEF MD   2100   56     330/ 17/ 23   N/A
COVE POINT MD    2100   57     340/ 17/ 22 1008.9R
SOLOMONS ISLAND  2100      56                N/A
BISHOPS HEAD MD  2100   58 63  310/ 22/ 26 1008.7S
PINEY POINT MD   2100          340/ 21/ 23   N/A
POTOMAC MD       2100   56     310/ 19/ 23 1008.4S
CAMBRIDGE MD     2100   58 58  300/ 15/ 21 1008.3R
LEWISETTA VA     2100   59 59  330/ 15/ 27 1009.6R
RAPPAHANNOCK LGT 2100          330/ 20/ 24 1009.2R
STINGRAY PT      2100   60     320/ 17/ 23 1009.0R
YORK RVR RNG VA  2100   61     340/ 20/ 26 1008.2R
YORKTOWN VA      2100   62 56  320/ 18/ 21 1008.8R
JAMESTOWN VA     2100   63     350/ 16/ 21   N/A
DOMINION TERM VA 2100   63     330/ 17/ 22 1008.8R
KIPTOPEKE VA     2100      56  350/ 24/ 28   N/A
CHES BAY BRIDGE  2100   59 54  330/ 13/ 21 1008.6R
CAPE HENRY VA    2100   56     350/ 16/ 20   N/A
CHESAPEAKE LGHT  2000   55     340/ 19/ 20 1008.7R
WILLOUBY STN VA  2100   63     300/ 20/ 25 1007.8R
S CRANEY ISL VA  2100          310/ 15/ 22 1008.7S
CAPE HENRY BUOY  2100      49                N/A     3/ 5
1ST LANDING BUOY 2100      49                N/A     3/ 9   2/ 9
64NM E OF VA BCH 2100   52 49  340/ 14/ 17 1008.1R   5/ 5   2/ 8
DUCK PIER NC     2100   56 51   60/  5/  7 1007.9S
44100 DUCK FRF   2100      50                N/A     3/ 8   2/17
44056 DUCK FRF   2100      51                N/A     3/ 5
OREGON INLET NC  2100   55 57   20/  7/ 10 1008.7R
HATTERAS NC      2100   58 60   70/  7/ 11 1009.3S
DIAMOND SHLS NC  2100   61 76   20/ 10/ 12 1008.6R   5/ 7   5/ 7
CAPE LOOKOUT NC  2000   63     120/  7/  7 1008.5F
FRYING PAN SHLS  2100   69 69  230/ 14/ 16 1008.4F   2/ 8   2/ 8
$$



USA.gov is the U.S. government's official web portal to all federal, state and local government web resources and services.